www.pogodaiklimat.ru

Погода и климат >> Архив погоды >> Германия >> Hamburg


АРХИВ ПОГОДЫ в Hamburg

Время (UTC), дата Ветер
(напр.,м/с)
 
Видим.   Явления Облачность Т
(С)
Тd
(С)
f
(%)
Тe
(С)
Тes
(С)
Комфортность P
(гПа)
Po
(гПа)
Тmin
(С)
Tmax
(С)
R
(мм)
R24
(мм)
S
(см)
19 10.10 В 4 25 км 5/0
[Ci fib]
+16.4 +11.4 72 +16 +16 тепло 1019.1 1017.3
20 10.10 В 5 25 км 4/0
[Ci fib]
+17.1 +11.6 70 +16 +16 тепло 1018.8 1017.0
21 10.10 В 5 25 км 4/0
[Ci fib]
+16.7 +11.4 71 +16 +16 тепло 1018.4 1016.6
22 10.10 ЮВ 5 25 км 4/0
[Ci fib]
+16.2 +11.2 72 +15 +15 тепло 1018.0 1016.2
23 10.10 В 4 22 км 3/0
[Ci fib]
+15.3 +11.0 76 +14 +14 тепло 1017.8 1016.0
00 11.10 В 3 20 км 1/0
[Ci fib]
+14.1 +10.7 80 +13 +13 тепло 1017.4 1015.6
01 11.10 В 4 20 км 1/0
[Ci fib]
+13.9 +10.6 80 +12 +12 тепло 1017.1 1015.3
02 11.10 В 6 18 км 1/0
[Ci fib]
+13.8 +10.6 81 +12 +12 тепло 1016.5 1014.7
03 11.10 ЮВ 4 15 км 1/0
[Ci fib]
+13.2 +10.2 82 +11 +11 тепло 1015.8 1014.0
04 11.10 ЮВ 3 15 км 3/0
[Ac trans Ci fib]
+12.6 +10.3 86 +11 +11 тепло 1015.7 1013.9
05 11.10 В 3-4
{6}
15 км ясно +13.4 +10.2 81 +12 +12 тепло 1015.4 1013.6
06 11.10 В 4 12 км ясно +12.8 +10.0 83 +11 +11 тепло 1015.6 1013.8 +12.1 +17.5
07 11.10 В 5-7
{7}
14 км ясно +13.4 +10.2 81 +11 +12 тепло 1015.5 1013.7
08 11.10 В 6-9
{10}
15 км ясно +14.6 +10.2 75 +13 +13 тепло 1015.4 1013.6
09 11.10 ЮВ 5 20 км ясно +16.2 +10.4 68 +15 +17 тепло 1015.6 1013.8
10 11.10 ЮВ 6-8
{9}
23 км ясно +18.0 +10.3 61 +17 +19 тепло 1015.3 1013.5
11 11.10 ЮВ 6-8
{10}
23 км ясно +19.7 +10.3 55 +21 +22 комфорт 1015.0 1013.2
12 11.10 ЮВ 6 25 км ясно +20.8 +10.0 50 +22 +24 комфорт 1014.7 1012.9
13 11.10 ЮВ 6-8
{9}
30 км ясно +21.4 +10.0 48 +23 +24 комфорт 1014.8 1013.0
14 11.10 ЮВ 6-7
{9}
30 км ясно +21.9 +10.1 47 +24 +24 комфорт 1014.6 1012.8
15 11.10 ЮВ 6 30 км ясно +21.8 +9.9 47 +23 +24 комфорт 1014.4 1012.6
16 11.10 ЮВ 5-6
{8}
30 км ясно +20.8 +9.9 50 +22 +23 комфорт 1014.4 1012.6
17 11.10 ЮВ 4-5
{6}
30 км ясно +19.2 +10.0 55 +20 +20 тепло 1015.1 1013.3
18 11.10 ЮВ 4 30 км ясно +17.7 +10.0 61 +17 +17 тепло 1015.0 1013.2 +12.4 +22.2
19 11.10 ЮВ 4-5
{6}
30 км ясно +16.1 +9.0 63 +15 +15 тепло 1015.1 1013.3
20 11.10 ЮВ 3-5
{5}
30 км ясно +16.1 +8.8 62 +16 +16 тепло 1015.2 1013.4
21 11.10 В 1 25 км ясно +15.5 +8.5 63 +16 +16 тепло 1015.5 1013.7
22 11.10 В 2-3
{3}
25 км ясно +12.2 +8.0 75 +11 +11 тепло 1015.4 1013.6
23 11.10 В 1-1
{2}
25 км ясно +12.3 +8.3 77 +12 +12 тепло 1015.5 1013.7
00 12.10 В 1 25 км 1/0
[Ac trans]
+11.9 +7.7 75 +12 +12 тепло 1015.5 1013.7
01 12.10 ЮВ 1 25 км 1/0
[Ac trans Ci fib]
+12.7 +7.3 70 +13 +13 тепло 1015.8 1014.0
02 12.10 ЮВ 2 25 км 4/0
[Ac trans Ci sp]
+13.2 +7.4 68 +13 +13 тепло 1016.1 1014.3
03 12.10 ЮВ 2 25 км 4/0
[Ci fib]
+12.7 +7.1 69 +12 +12 тепло 1016.3 1014.5
04 12.10 ЮВ 3 25 км 1/0
[Ci fib]
+12.5 +7.1 70 +11 +11 тепло 1016.5 1014.7
05 12.10 ЮВ 2 25 км 1/0
[Ac trans]
+12.8 +7.1 68 +12 +12 тепло 1017.0 1015.2
06 12.10 ЮВ 2 30 км 1/0
[Ac trans]
+12.6 +7.1 69 +12 +12 тепло 1017.6 1015.8 +11.4 +17.8
07 12.10 ЮВ 3-4
{4}
25 км ясно +13.6 +7.7 67 +13 +13 тепло 1018.7 1016.9
08 12.10 ЮВ 3 30 км 3/0
[Ci fib]
+16.0 +8.8 62 +16 +17 тепло 1019.1 1017.3
09 12.10 Ю 3 30 км 1/0
[Ci fib]
+18.5 +9.9 57 +19 +21 тепло 1020.0 1018.2
10 12.10 ЮЗ 5 40 км 1/0
[Ci fib]
+21.2 +12.2 56 +23 +25 комфорт 1020.3 1018.5
11 12.10 ЮЗ 4 40 км 3/0
[Ci fib]
+22.1 +12.0 53 +24 +27 комфорт 1020.3 1018.5
12 12.10 Ю 5 40 км 5/0
[Ci fib]
+23.6 +12.2 49 +25 +28 комфорт 1019.9 1018.2
13 12.10 Ю 6 40 км 6/0
[Ci fib]
+23.8 +12.0 48 +26 +27 жарко 1020.1 1018.4
14 12.10 Ю 4 50 км 5/0
[Ci fib]
+24.2 +12.0 46 +26 +27 жарко 1020.3 1018.6
15 12.10 ЮЗ 5 50 км 5/0
[Ci fib]
+23.7 +12.3 49 +26 +26 жарко 1020.5 1018.8
16 12.10 ЮЗ 4 50 км 6/0
[Ci fib]
+22.5 +12.4 53 +25 +25 комфорт 1020.9 1019.1
17 12.10 Ю 2 50 км 8/0
[Ci fib]
+20.1 +13.1 64 +23 +23 комфорт 1021.2 1019.4
18 12.10 ЮВ 2 40 км 5/0
[Ac trans Ci fib]
+19.3 +12.5 65 +21 +21 комфорт 1021.3 1019.5 +12.2 +24.4
19 12.10 ЮВ 3 40 км 5/0
[Ci fib]
+18.3 +12.6 69 +19 +19 тепло 1021.4 1019.6
20 12.10 ЮВ 3 40 км 4/0
[Ci fib]
+18.2 +12.0 67 +19 +19 тепло 1021.5 1019.7
21 12.10 ЮВ 4 40 км 3/0
[Ci fib]
+17.7 +11.9 69 +17 +17 тепло 1021.8 1020.0
22 12.10 ЮВ 3 40 км 3/0
[Ci fib]
+16.1 +11.6 75 +16 +16 тепло 1021.7 1019.9
23 12.10 Ю 1 35 км 1/0
[Ci fib]
+16.0 +11.4 74 +17 +17 тепло 1021.5 1019.7
00 13.10 Ю 2 35 км 3/0
[Ci fib]
+15.9 +11.2 74 +16 +16 тепло 1021.5 1019.7
01 13.10 ЮВ 2 35 км 4/0
[Ci fib]
+15.6 +11.4 76 +16 +16 тепло 1021.5 1019.7
02 13.10 ЮВ 2 35 км 3/0
[Ci fib]
+15.6 +11.4 76 +16 +16 тепло 1021.7 1019.9
03 13.10 ЮВ 2 35 км 5/4 2000 м
[Sc Ci fib]
+15.1 +11.0 76 +15 +15 тепло 1021.9 1020.1
04 13.10 ЮВ 2 30 км 1/1 2000 м
[Sc Ci fib]
+14.6 +10.9 78 +14 +14 тепло 1021.9 1020.1
05 13.10 ЮВ 3 30 км 4/0
[Ci fib]
+14.6 +10.9 78 +14 +14 тепло 1021.6 1019.8
06 13.10 ЮВ 3 35 км 8/3 2000 м
[Sc Ci fib]
+14.6 +11.1 80 +14 +14 тепло 1021.8 1020.0 +14.2 +19.2
07 13.10 ЮВ 3 35 км 8/0
[Ci fib]
+16.0 +11.6 75 +16 +16 тепло 1021.9 1020.1
08 13.10 ЮВ 5 40 км 8/0
[Ci fib]
+18.2 +11.8 66 +18 +19 тепло 1021.9 1020.1
09 13.10 ЮВ 4 40 км 8/0
[Ci fib]
+20.3 +12.2 60 +22 +24 комфорт 1021.7 1019.9
10 13.10 ЮВ 5 40 км 6/0
[Ci fib]
+22.7 +12.7 53 +25 +27 комфорт 1021.5 1019.7
11 13.10 ЮВ 4 40 км 6/0
[Ci sp]
+24.4 +13.0 49 +26 +29 жарко 1020.9 1019.2
12 13.10 ЮВ 7 40 км 5/0
[Ci sp]
+25.9 +12.6 44 +28 +29 жарко 1020.1 1018.4
13 13.10 Ю 6 40 км 4/0
[Ci sp]
+26.3 +11.9 41 +28 +29 жарко 1019.7 1018.0
14 13.10 ЮВ 6 45 км 3/0
[Ci sp]
+26.9 +11.6 39 +28 +29 жарко 1019.0 1017.3
15 13.10 Ю 6 40 км 3/0
[Ci sp]
+26.6 +11.2 38 +28 +28 жарко 1018.5 1016.8
16 13.10 Ю 5 45 км 1/0
[Ci sp]
+25.4 +10.6 39 +26 +26 жарко 1018.2 1016.5
17 13.10 ЮВ 5 45 км 1/0
[Ci fib]
+22.6 +11.5 49 +25 +25 комфорт 1018.3 1016.5
18 13.10 ЮВ 5 40 км 1/0
[Ci fib]
+21.3 +11.0 52 +23 +23 комфорт 1018.4 1016.6 +14.5 +27.1
19 13.10 ЮВ 4-6
{7}
40 км ясно +20.2 +9.9 52 +22 +22 комфорт 1018.1 1016.3
20 13.10 ЮВ 5-7
{7}
40 км ясно +20.6 +9.5 49 +22 +22 комфорт 1017.7 1015.9
21 13.10 ЮВ 5 40 км ясно +19.8 +9.0 50 +21 +21 комфорт 1017.4 1015.6
22 13.10 ЮВ 6-8
{9}
40 км ясно +19.3 +8.2 49 +20 +20 тепло 1016.9 1015.1
23 13.10 Ю 3-5
{8}
40 км ясно +18.0 +8.1 52 +18 +18 тепло 1016.8 1015.0
00 14.10 В 2 40 км ясно +15.7 +7.4 58 +16 +16 тепло 1016.5 1014.7
01 14.10 ЮВ 3-4
{5}
35 км ясно +13.8 +7.8 67 +13 +13 тепло 1016.3 1014.5
02 14.10 В 3-4
{6}
35 км ясно +13.2 +7.8 70 +12 +12 тепло 1015.6 1013.8
03 14.10 ЮВ 4 30 км ясно +13.1 +7.6 69 +11 +11 тепло 1014.9 1013.1
04 14.10 ЮВ 4-5
{6}
25 км ясно +12.0 +7.4 73 +10 +10 тепло 1014.6 1012.8
05 14.10 ЮВ 4-5
{6}
20 км ясно +12.0 +7.5 74 +10 +10 тепло 1013.9 1012.1
06 14.10 ЮВ 5 15 км ясно +11.5 +7.4 76 +9 +9 тепло 1013.6 1011.8 +11.2 +22.0
07 14.10 ЮВ 4-6
{7}
18 км ясно +12.2 +7.7 74 +10 +10 тепло 1013.5 1011.7
08 14.10 ЮВ 5-7
{8}
20 км ясно +14.5 +8.1 65 +13 +14 тепло 1013.0 1011.2
09 14.10 ЮВ 4 20 км ясно +16.4 +8.5 60 +16 +18 тепло 1012.9 1011.1
10 14.10 ЮВ 5-8
{8}
25 км ясно +18.2 +8.9 55 +18 +20 тепло 1012.5 1010.7
11 14.10 ЮВ 5-8
{8}
30 км ясно +19.9 +8.8 49 +21 +23 комфорт 1012.1 1010.3
12 14.10 ЮВ 6 30 км ясно +21.8 +9.1 44 +23 +25 комфорт 1011.4 1009.7
13 14.10 ЮВ 7-9
{9}
35 км ясно +23.3 +9.1 40 +25 +26 комфорт 1010.7 1009.0
14 14.10 ЮВ 7-10
{10}
35 км ясно +23.5 +9.3 40 +24 +25 комфорт 1010.6 1008.9
15 14.10 ЮВ 8 35 км ясно +23.2 +9.8 43 +25 +25 комфорт 1010.5 1008.8
16 14.10 ЮВ 7-9
{10}
40 км ясно +22.3 +9.8 45 +24 +24 комфорт 1010.6 1008.9
17 14.10 ЮВ 6-9
{9}
35 км ясно +20.8 +9.7 49 +22 +22 комфорт 1011.2 1009.4
18 14.10 ЮВ 6 35 км 1/0
[Ci fib]
+20.1 +9.3 50 +21 +21 комфорт 1011.4 1009.6 +11.3 +23.8
19 14.10 ЮВ 6-8
{9}
35 км ясно +19.2 +8.8 51 +20 +20 тепло 1011.5 1009.7
20 14.10 ЮВ 5-8
{10}
35 км ясно +18.5 +8.5 52 +19 +19 тепло 1011.5 1009.7
21 14.10 ЮВ 4 30 км ясно +17.2 +8.4 56 +17 +17 тепло 1011.6 1009.8
22 14.10 ЮВ 3-4
{5}
30 км ясно +15.4 +8.0 61 +15 +15 тепло 1011.6 1009.8
23 14.10 Ю 1-2
{4}
30 км ясно +14.5 +8.3 66 +15 +15 тепло 1011.6 1009.8
00 15.10 В 1 25 км ясно +14.1 +8.3 68 +15 +15 тепло 1011.8 1010.0
01 15.10 В 2-3
{3}
25 км ясно +13.7 +8.0 68 +13 +13 тепло 1011.9 1010.1
02 15.10 ЮВ 2-3
{3}
25 км ясно +13.4 +8.1 70 +13 +13 тепло 1011.8 1010.0
03 15.10 ЮВ 2 25 км 1/0
[Ci fib]
+12.4 +7.6 73 +12 +12 тепло 1011.9 1010.1
04 15.10 ЮВ 3-5
{5}
25 км ясно +11.8 +7.5 75 +10 +10 тепло 1012.1 1010.3
05 15.10 ЮВ 3-4
{5}
25 км ясно +12.0 +7.5 74 +10 +10 тепло 1012.1 1010.3
06 15.10 ЮВ 3 25 км ясно +11.4 +7.4 76 +10 +10 тепло 1012.4 1010.6 +10.8 +20.1
07 15.10 Ю 3 25 км 1/0
[Ac trans]
+12.9 +7.9 72 +12 +12 тепло 1012.6 1010.8
08 15.10 Ю 3-4
{6}
30 км ясно +14.7 +8.1 65 +14 +15 тепло 1013.0 1011.2
09 15.10 ЮВ 3 30 км ясно +17.2 +8.5 57 +17 +19 тепло 1013.3 1011.5
10 15.10 ЮВ 3-4
{5}
30 км ясно +19.5 +8.9 50 +21 +24 комфорт 1013.2 1011.4
11 15.10 Ю 3-4
{4}
35 км ясно +21.1 +9.6 48 +22 +26 комфорт 1013.1 1011.3
12 15.10 Ю 3 30 км 1/0
[Ac trans]
+21.6 +9.6 46 +23 +26 комфорт 1013.2 1011.4
13 15.10 ЮВ 3 35 км 1/0
[Ac trans Ci fib]
+22.7 +10.1 45 +25 +27 комфорт 1012.9 1011.2
14 15.10 Ю 2 35 км 1/0
[Ac trans Ci fib]
+23.8 +9.8 41 +25 +27 комфорт 1012.9 1011.2
15 15.10 Ю 3 40 км 1/0
[Ac trans]
+23.8 +9.4 40 +25 +25 комфорт 1012.9 1011.2
16 15.10 ЮЗ 2 35 км 1/0
[Ac trans]
+21.2 +10.8 51 +23 +23 комфорт 1013.3 1011.5
17 15.10 З 1 35 км 1/0
[Ac trans Ci fib]
+17.3 +11.2 67 +18 +18 тепло 1014.1 1012.3
18 15.10 СВ 1 30 км 1/0
[Ac trans]
+15.9 +11.0 73 +17 +17 тепло 1014.4 1012.6 +11.2 +24.4
19 15.10 В 1-1
{2}
25 км ясно +14.5 +10.9 79 +15 +15 тепло 1014.7 1012.9
20 15.10 ЮВ 1-2
{2}
25 км ясно +13.9 +10.9 82 +14 +14 тепло 1014.8 1013.0
21 15.10 В 1 20 км ясно +13.0 +10.8 86 +13 +13 тепло 1014.9 1013.1
22 15.10 В 1 20 км 1/0
[Ci fib]
+12.4 +10.3 87 +12 +12 тепло 1015.1 1013.3
23 15.10 ЮВ 1 18 км местами туман поземный 1/0
[Ac trans Ci fib]
+13.2 +10.2 82 +13 +13 тепло 1015.3 1013.5
00 16.10 Ю 1 18 км 3/0
[Ac trans]
+12.6 +10.1 85 +13 +13 тепло 1015.7 1013.9
01 16.10 В 1 18 км местами туман поземный 4/0
[Ac trans]
+11.2 +9.7 90 +11 +11 тепло 1015.9 1014.1
02 16.10 В 1 20 км 6/0
[Ac trans]
+12.2 +9.7 85 +12 +12 тепло 1016.0 1014.2
03 16.10 ЮВ 1 20 км 6/0
[Ac trans]
+11.1 +9.7 91 +11 +11 тепло 1016.3 1014.5
04 16.10 В 1 20 км 3/0
[Ac trans Ci fib]
+11.9 +9.4 85 +12 +12 тепло 1016.3 1014.5
05 16.10 Ю 2 20 км местами туман поземный 6/0
[Ac As Ci fib]
+12.0 +9.5 85 +11 +11 тепло 1016.7 1014.9
06 16.10 СВ 1 17 км слабый ливневой дождь 8/5 1000 м
[Cu Sc Ac As]
+12.0 +10.2 89 +12 +12 тепло 1017.0 1015.2 +10.9 +16.1 0.0
07 16.10 Ю 1 20 км в посл. час ливневой дождь 8/1 1140 м
[Cu med, cong Ac As]
+14.1 +10.5 79 +14 +15 тепло 1017.7 1015.9
08 16.10 Ю 2 20 км 6/0
[Ac As]
+14.7 +11.7 82 +14 +15 тепло 1018.0 1016.2
09 16.10 Ю 2 15 км {ливн. осадки} 5/0
[Ac As]
+16.4 +11.3 72 +17 +18 тепло 1018.3 1016.5 0.0
10 16.10 Ю 1 15 км 9/0
[Ac As]
+18.1 +11.9 67 +19 +21 тепло 1018.5 1016.7
11 16.10 Ю 1 20 км в посл. час дождь 9/0
[Ac As]
+20.1 +13.0 64 +23 +25 комфорт 1018.5 1016.7
12 16.10 ЮЗ 3 20 км в посл. час дождь {ливн. осадки} 9/3 1200 м
[Sc Ac As]
+20.4 +13.1 63 +23 +24 комфорт 1018.5 1016.7 0.0
13 16.10 ЮЗ 3 22 км в посл. час дождь 9/1 1500 м
[Sc Ac As]
+19.8 +13.4 67 +22 +23 комфорт 1018.4 1016.6
14 16.10 ЮЗ 3 22 км в посл. час дождь 9/0
[Ac As]
+20.3 +13.5 65 +23 +23 комфорт 1018.4 1016.6
15 16.10 ЮЗ 2 16 км {дождь} 9/0
[Ac As]
+19.8 +14.0 69 +22 +23 комфорт 1018.6 1016.8 0.0
16 16.10 З 2 13 км 9/0
[Ac As]
+18.4 +14.3 77 +19 +19 тепло 1018.6 1016.8
17 16.10 штиль 0 13 км 9/0
[Ac As]
+17.0 +14.2 84 +17 +17 тепло 1019.1 1017.3
18 16.10 С 1 12 км {дождь} 9/1 1500 м
[Sc Ac trans]
+16.3 +14.2 87 +17 +17 тепло 1019.4 1017.6 +12.0 +20.6 0.0
19 16.10 штиль 0 12 км 9/0
[Ac trans]
+16.1 +14.1 88 +16 +16 тепло 1019.7 1017.9
20 16.10 В 1 10 км 9/0
[Ac trans]
+15.8 +13.9 88 +16 +16 тепло 1019.7 1017.9
21 16.10 штиль 0 8000 м местами туман поземный 8/0
[Ac trans]
+14.6 +13.5 93 +14 +14 тепло 1019.6 1017.8
22 16.10 штиль 0 7000 м туман на расстоянии 5/0
[Ac trans]
+13.9 +13.1 95 +13 +13 тепло 1019.5 1017.7
23 16.10 В 2 4000 м туман на расстоянии 4/0
[Ac trans]
+12.2 +11.7 97 +11 +11 тепло 1019.3 1017.5
00 17.10 штиль 0 4500 м туман на расстоянии 4/0
[Ac trans Ci fib]
+11.2 +10.5 95 +10 +10 тепло 1019.3 1017.5
01 17.10 ЮВ 1 4500 м туман на расстоянии 5/0
[Ac trans Ci fib]
+12.1 +11.6 97 +12 +12 тепло 1019.1 1017.3
02 17.10 В 1 4000 м туман на расстоянии 6/0
[Ac trans Ci fib]
+11.0 +10.1 94 +11 +11 тепло 1018.8 1017.0
03 17.10 В 1 3800 м туман на расстоянии 5/0
[Ac trans Ci fib]
+12.7 +12.1 96 +13 +13 тепло 1018.9 1017.1
04 17.10 В 1 5000 м туман на расстоянии 5/0
[Ac trans Ci fib]
+12.9 +12.2 96 +13 +13 тепло 1018.8 1017.0
05 17.10 СВ 1 8000 м туман на расстоянии 6/0
[Ac trans Ci fib]
+12.3 +11.9 97 +12 +12 тепло 1018.9 1017.1
06 17.10 СЗ 1 8000 м туман на расстоянии 9/0
[Ac trans Ci sp]
+11.8 +11.4 97 +12 +12 тепло 1019.2 1017.4 +10.7 +16.6
07 17.10 ЮВ 2 11 км местами туман поземный 9/0
[Ac trans Ci sp]
+14.1 +13.8 98 +13 +14 тепло 1019.2 1017.4
08 17.10 Ю 2 15 км 9/0
[Ac trans Ci sp]
+16.7 +12.8 78 +17 +17 тепло 1019.2 1017.4
09 17.10 ЮВ 2 18 км 9/0
[Ac trans Ci sp]
+17.5 +12.7 73 +18 +20 тепло 1019.3 1017.5
10 17.10 Ю 2 20 км 9/0
[Ac trans Ci sp]
+19.3 +12.1 63 +21 +24 комфорт 1019.5 1017.7
11 17.10 Ю 3 25 км 8/0
[Ci fib]
+20.7 +11.7 56 +23 +26 комфорт 1019.2 1017.4
12 17.10 Ю 2 30 км 6/0
[Ac trans Ci fib]
+22.1 +11.8 52 +24 +28 комфорт 1018.8 1017.0
13 17.10 ЮЗ 2 30 км 6/0
[Ac trans Ci fib]
+23.1 +11.1 47 +25 +28 комфорт 1018.4 1016.6
14 17.10 ЮЗ 1 30 км 6/0
[Ac trans Ci fib]
+23.3 +11.5 47 +26 +27 жарко 1018.2 1016.5
15 17.10 ЮЗ 1 40 км 8/0
[Ac trans Ci fib]
+21.1 +12.3 57 +23 +24 комфорт 1018.2 1016.4
16 17.10 штиль 0 30 км 8/0
[Ac trans Ci fib]
+19.2 +13.1 68 +20 +20 тепло 1018.4 1016.6
17 17.10 штиль 0 25 км 8/0
[Ac trans Ci fib]
+16.3 +13.1 81 +16 +16 тепло 1018.6 1016.8

 

Местоположение метеостанции Hamburg (Германия): широта 53.63 долгота 10.00 высота над уровнем моря 16 м.

В архиве по умолчанию представлена погода в Hamburg за последнюю неделю. Архивные данные за месяц целиком и за предыдущие месяцы, начиная с января 2011 года, Вы можете получить, выбрав интересующий диапазон дат из раскрывающегося списка и нажав кнопку "Ввод!".


*Определитесь, кто Вы:
робот инопланетянин человек

Внимание! Время в таблицах - всемирное. Для получения местного времени необходимо прибавить поправку, которая в Hamburg равна 1 ч.

Смотрите также архив погоды в соседних городах и на ближайших метеорологических станциях:

Погода в Quickborn (Германия) (14 км)
Погода в Itzehoe (Германия) (48 км)
Погода в Luebeck-Blankensee (Германия) (51 км)
Погода в Boizenburg (Германия) (52 км)
Погода в Bremervoerde (Германия) (57 км)
Погода в Doernick (Германия) (64 км)
Погода в Soltau (Германия) (71 км)
Погода в Pelzerhaken (Германия) (76 км)
Погода в Fassberg (Германия) (80 км)
Погода в Elpersbuettel (Германия) (81 км)

Пояснения к столбцам:

Ветер - указаны скорость ветра в м/с - средняя за 10 мин, порывы в срок и между сроками (в фигурных скобках) и направление, откуда дует ветер: С - северный, СВ - северо-восточный, В - восточный, ЮВ - юго-восточный, Ю - южный, ЮЗ - юго-западный, З - западный, СЗ - северо-западный.
Видимость - горизонтальная дальность видимости в метрах или километрах. При видимости от 1 до 10 км при отсутствии осадков обычно наблюдается дымка, при ухудшении видимости до 1 км и менее - туман. В сухую погоду видимость может ухудшаться дымом, пылью или мглою.
Явления - указаны атмосферные явления, наблюдавшиеся в срок или в последний час перед сроком; фигурными скобками обозначены явления, наблюдавшиеся между сроками (за 1-3 часа до срока); квадратными скобками обозначены град или гололедные отложения с указанием их диаметра в мм.
Облачность - указаны через наклонную черту общая и нижняя облачность в баллах и высота нижней границы облаков в метрах; квадратными скобками обозначены формы облаков: Ci - перистые, Cs - перисто-слоистые, Cc - перисто-кучевые, Ac - высококучевые, As - высокослоистые, Sc - слоисто-кучевые, Ns - слоисто-дождевые, Cu - кучевые, Cb - кучево-дождевые. Подробнее классификацию облаков см. в Атласе облаков (PDF).
T - Температура воздуха - температура, измеренная на высоте 2 м над землей.
Td - Температура точки росы - температура, при понижении до которой содержащийся в воздухе водяной пар достигнет насыщения.
f - Относительная влажность воздуха - влажноcть воздуха, измеренная на высоте 2 м над землей.
Te - Эффективная температура - температура, которую ощущает одетый по сезону человек в тени. Характеристика душности погоды. При расчете учитывается влияние влажности воздуха и скорости ветра на теплоощущения человека.
Tes - Эффективная температура на солнце - температура, которую ощущает человек, с поправкой на солнечный нагрев. Характеристика знойности погоды. Зависит от высоты солнца над горизонтом, облачности и скорости ветра. Ночью, в пасмурную погоду, а также при ветре 12 м/с и более поправка равна нулю.
P - Атмосферное давление - приведенное к уровню моря атмосферное давление.
Po - Атмосферное давление - измеренное на уровне метеостанции атмосферное давление.
Tmin - Минимальная температура - минимум температуры воздуха на высоте 2 м над землей.
Tmax - Максимальная температура - максимум температуры воздуха на высоте 2 м над землей.
R - Количество осадков - Количество выпавших осадков за период времени, мм. При наведении курсора мыши на число - период времени, за который выпало указанное количество осадков.
R24 - Количество осадков - Количество выпавших осадков за 24 часа, мм.
S - Снежный покров - Высота снежного покрова, см. При наведении курсора мыши на число - состояние снежного покрова и степень покрытия местности в баллах.